User: anonymous   Login
Location: Henau
(47.4548°N, 9.1164°E)
Time: 04:54:08
(UTC+00:00)
Language:

Cosmos 1777 Rocket - Orbit

View from above orbital plane
View from above orbital plane
View from above satellite
View from above satellite

Ground track
Ground track

The orbit data is extracted from the following two-line orbital elements,

1 16953U 86070B   21125.45678800 -.00000011  00000-0  51527-5 0  9992
2 16953  74.0118 182.9594 0011179  62.5134 297.7155 14.37423811815605
Epoch (UTC): 05 May 2021 10:57:46
Eccentricity: 0.0011179
inclination: 74.0118°
perigee height: 759 km
apogee height: 775 km
right ascension of ascending node: 182.9594°
argument of perigee: 62.5134°
revolutions per day: 14.37423811
mean anomaly at epoch: 297.7155°
orbit number at epoch: 81560

The dashed part of the orbit path shows where the satellite is in the earth's shadow,  

DLR